RH
15 16 18 19 19 19 20 20 19 19 19 19 19 19 19 20 20 20 20 20 20 20 20 19 19 19 18 18 18 18 17 16 14 12 11 7 7 7 6 7 7 8 10 10 10 18 22 19 22 24 30 36 32 33 36 41 44 37 32 31 30 27 25 25 29 34 32 34 43 49 49 50 54 60 64 62 62 61 62 70 70 72 73 65 58 59 71 79
10 11 13 14 16 16 17 18 19 19 19 19 19 19 19 19 19 19 20 20 20 20 20 19 19 19 18 18 18 18 17 16 15 11 9 7 8 8 6 6 6 7 9 11 9 12 20 20 20 22 29 33 29 30 34 40 41 32 29 31 29 25 23 22 25 30 29 34 43 48 49 49 51 59 64 58 57 59 61 70 73 77 80 67 55 61 75 84
7 8 9 9 11 12 14 15 16 17 18 19 19 19 19 19 19 19 19 19 19 19 20 20 19 19 18 18 18 18 17 17 14 9 7 9 11 11 8 5 5 7 7 9 9 9 14 17 17 15 22 26 25 30 32 35 35 30 29 30 27 22 22 22 25 27 29 36 43 48 49 48 52 60 60 54 54 55 55 64 68 73 83 73 60 68 83 91
6 7 7 7 8 9 10 11 13 14 16 17 18 19 19 19 19 19 19 19 19 19 19 19 19 19 18 19 18 17 18 16 11 9 10 11 12 12 11 8 5 6 7 9 10 10 10 14 15 11 17 21 22 28 27 28 30 28 28 28 24 22 22 22 24 26 30 38 42 47 48 47 54 58 56 53 53 51 51 56 60 66 78 76 68 75 86 93
6 6 6 6 6 7 7 8 9 11 12 14 16 17 18 19 19 19 19 18 18 19 19 19 19 19 18 18 18 18 17 15 9 10 13 12 10 10 12 12 9 6 7 8 10 11 10 12 14 13 17 17 18 23 21 23 26 25 25 24 23 23 21 21 23 25 32 40 43 47 46 46 54 55 53 52 46 43 47 54 58 58 59 62 65 75 87 94
7 6 6 6 6 6 6 6 7 7 9 10 12 14 16 18 19 19 19 18 18 18 18 18 18 18 18 18 18 17 17 15 10 10 12 11 10 9 10 11 11 9 8 8 9 11 11 11 14 15 15 14 16 18 16 20 24 23 22 21 22 23 22 21 23 26 34 41 42 44 44 48 52 49 52 52 43 40 46 52 55 51 49 53 57 67 80 89
7 7 7 6 6 6 6 6 5 6 6 7 8 10 12 15 18 19 18 18 17 17 17 17 18 18 18 18 17 16 18 15 9 11 12 11 11 11 10 9 8 9 8 8 9 11 11 12 14 13 11 11 14 16 15 17 21 22 20 17 17 19 21 22 23 27 35 39 41 44 44 48 47 45 52 50 43 45 47 49 52 50 50 54 55 60 66 70
6 6 6 6 6 6 6 6 6 6 5 5 6 6 8 10 14 17 18 18 18 17 17 16 17 18 18 18 16 16 18 13 9 11 11 12 13 12 12 10 8 8 9 8 8 10 11 13 13 10 9 10 13 16 15 15 17 19 17 15 14 16 19 21 23 29 35 38 42 44 43 44 45 46 50 47 47 53 52 49 53 53 53 58 59 63 64 63
6 6 6 5 5 6 6 6 6 6 6 6 6 5 6 6 9 12 15 17 18 18 17 17 18 18 18 17 16 18 15 10 10 12 12 13 14 12 12 12 9 9 10 9 9 10 10 12 10 7 9 10 14 16 14 13 15 14 14 14 14 16 20 23 25 30 36 40 43 42 41 44 48 47 47 48 51 57 60 55 54 56 60 65 66 67 65 61
7 7 7 6 6 6 6 6 6 6 6 6 6 6 5 5 6 7 9 12 15 17 18 18 18 17 18 17 17 18 12 9 11 12 14 16 15 12 12 12 8 8 11 10 10 10 10 9 7 7 10 12 15 15 12 14 13 12 17 20 20 21 23 24 27 32 36 40 41 40 41 45 49 45 40 49 55 57 65 65 58 60 66 69 71 72 66 59
7 7 7 7 7 7 7 7 7 7 6 6 6 6 6 6 5 5 5 7 9 13 16 17 18 17 18 18 20 17 9 9 13 15 16 17 17 14 12 12 8 8 12 11 10 11 10 8 7 8 11 12 14 14 13 12 11 14 21 26 26 24 26 26 28 33 35 39 41 40 43 47 49 44 38 48 59 58 65 72 68 67 71 72 74 75 68 62
7 7 7 7 7 8 8 8 8 8 8 7 6 6 7 6 6 6 5 5 6 10 14 16 17 18 20 22 20 14 11 14 16 18 18 18 19 15 13 12 8 10 13 11 11 12 10 9 10 10 11 12 13 14 12 11 15 22 24 26 27 26 27 28 29 33 33 38 42 40 43 48 47 44 43 51 61 63 67 74 75 75 77 78 79 78 68 61
7 6 6 6 6 7 7 8 8 9 8 8 7 6 7 6 6 6 5 5 5 9 13 16 18 19 25 26 16 10 14 18 18 18 19 18 16 14 14 11 8 13 14 10 11 12 9 10 12 11 11 12 12 12 11 15 23 27 26 25 26 28 29 29 31 32 33 39 42 36 36 41 41 44 50 55 61 66 68 72 76 77 80 81 83 83 73 66
8 7 7 7 6 6 6 6 7 7 8 9 8 7 7 6 6 6 6 5 6 11 16 19 20 20 28 25 12 12 17 17 19 20 20 17 13 13 15 10 8 14 15 12 12 11 10 12 14 10 9 11 11 10 12 20 26 26 26 25 26 27 29 32 32 31 34 42 40 32 30 31 34 44 54 58 61 64 65 69 73 75 79 81 84 83 79 77
9 8 8 8 7 6 6 6 6 6 7 8 9 8 7 6 6 6 5 6 9 16 19 21 20 24 34 26 12 15 18 17 21 20 19 18 15 14 15 11 9 12 15 15 13 11 10 11 11 8 8 10 9 9 13 21 26 26 26 28 27 26 29 34 34 31 34 42 39 31 32 29 30 42 55 60 61 61 62 65 69 71 75 78 83 84 81 83
9 8 8 8 8 7 7 6 6 6 6 7 8 8 8 7 6 6 6 9 15 19 21 23 23 29 34 24 16 18 18 18 20 19 17 18 18 16 15 14 12 13 14 14 13 11 10 10 9 8 9 9 9 9 15 24 29 28 26 30 30 27 31 35 34 32 32 40 39 32 32 31 32 43 54 59 60 60 60 63 66 68 71 74 79 81 82 85
8 7 7 8 7 7 7 7 7 6 6 6 7 8 8 7 6 7 9 13 19 23 24 24 29 35 29 18 18 18 16 19 19 18 17 17 19 17 16 16 16 15 15 14 14 11 9 10 9 8 9 9 10 10 15 24 30 31 28 30 31 28 32 34 34 34 33 38 39 35 34 32 37 48 54 58 60 59 58 61 66 67 70 73 76 78 80 83
7 7 6 6 7 7 7 7 7 7 7 5 6 8 8 8 8 9 13 19 25 27 28 31 36 34 22 16 19 17 15 17 16 16 16 17 19 18 16 16 16 17 16 14 14 12 11 11 10 8 9 10 10 11 15 18 23 30 29 29 31 30 31 33 33 33 33 37 37 37 38 33 38 50 54 57 59 58 57 59 64 66 70 72 74 76 76 79
6 6 6 6 6 6 6 7 7 7 7 6 7 8 7 8 10 15 24 30 30 25 24 32 35 25 16 15 16 15 13 13 12 12 14 16 19 19 17 16 16 16 15 13 13 13 11 11 11 10 10 10 9 11 13 12 16 24 26 26 28 29 31 31 30 30 33 38 37 36 39 33 37 50 54 56 59 58 58 60 63 65 68 71 73 74 75 75
6 5 5 5 5 5 5 6 6 6 6 7 7 7 10 13 13 18 23 21 19 17 14 20 22 18 16 14 13 13 13 12 10 11 13 16 19 19 17 15 16 15 14 12 11 12 11 10 11 10 9 9 8 10 11 11 15 21 24 26 26 26 29 30 29 29 31 37 38 35 36 33 37 49 53 55 59 58 58 60 63 65 67 70 71 73 73 68
6 5 5 4 4 5 4 5 6 5 8 9 7 9 16 20 18 18 17 10 8 11 11 12 13 14 14 13 13 14 15 15 13 12 15 18 18 19 17 14 14 14 13 11 10 11 11 10 10 9 8 8 9 9 11 13 16 21 23 25 27 26 26 28 28 27 30 35 37 37 39 37 38 47 52 55 57 56 57 58 60 64 66 69 71 73 72 68
6 6 5 4 4 4 4 5 4 6 9 8 6 12 18 18 16 14 15 15 11 9 10 11 12 13 13 13 14 15 18 20 15 12 15 17 18 19 17 13 14 15 11 10 11 11 12 10 8 9 9 9 11 11 11 13 16 19 21 23 26 25 24 26 25 25 29 33 35 37 39 37 37 45 50 54 56 55 57 57 59 63 65 68 70 71 73 73
7 6 6 5 4 4 4 4 5 8 9 6 7 15 17 13 11 9 13 18 15 10 11 12 14 14 14 14 15 17 21 21 16 12 12 15 17 18 17 14 14 14 11 9 10 11 12 10 8 9 10 10 13 14 12 12 14 16 18 22 24 23 24 25 23 24 28 30 33 36 37 35 38 45 49 52 55 56 58 59 60 63 65 68 66 66 69 71
7 7 7 6 4 4 4 4 7 9 7 5 10 15 14 11 8 7 15 21 17 15 14 14 17 17 16 17 17 19 21 21 18 13 11 14 17 19 16 14 14 14 11 9 10 10 10 9 9 10 10 10 12 15 14 12 13 15 15 18 19 19 20 22 23 26 30 32 32 33 36 35 37 43 45 49 54 56 58 59 60 62 63 66 65 64 66 63
8 9 9 7 6 4 3 6 8 7 5 8 15 16 11 9 7 9 22 26 21 19 19 18 20 18 17 19 19 20 21 21 17 12 12 15 17 18 16 14 15 16 13 10 10 10 9 10 11 10 10 10 10 14 13 11 13 14 14 14 14 15 17 22 26 28 31 36 32 31 36 38 39 42 40 44 52 55 56 57 57 60 61 63 64 66 67 63
8 9 9 9 8 5 5 6 6 5 6 13 19 16 10 8 7 13 26 31 23 20 19 20 20 17 17 20 20 21 21 19 15 12 13 15 15 16 16 15 15 16 12 9 11 11 9 10 11 10 10 10 10 12 12 11 11 13 14 13 13 14 17 24 26 25 30 34 30 28 31 35 38 42 41 44 51 53 53 54 54 56 59 60 61 62 64 63
9 9 9 10 9 7 7 6 5 5 7 12 15 12 8 7 8 16 27 30 23 19 20 21 20 17 17 20 21 20 17 14 15 15 14 14 14 15 15 15 15 14 11 11 14 13 10 11 11 10 10 10 9 10 11 12 10 12 14 13 14 15 19 24 24 23 27 30 32 31 29 32 33 36 43 46 50 53 53 53 52 52 55 56 58 59 60 60
9 9 9 10 9 9 9 7 5 6 7 9 10 10 9 6 7 18 28 26 20 19 21 21 19 17 18 21 21 18 15 14 15 17 16 14 15 15 15 15 15 13 11 14 17 13 10 10 11 11 11 10 9 9 12 12 9 12 15 13 14 15 17 22 20 22 27 29 37 38 32 36 35 36 46 48 49 54 53 51 50 50 52 53 54 56 57 57
9 9 9 9 8 8 8 7 5 6 7 7 9 9 6 6 12 21 25 22 19 18 18 17 15 16 20 24 23 20 18 16 14 17 19 17 16 16 16 15 14 12 11 13 15 12 10 9 9 10 11 10 9 10 12 11 9 12 15 13 14 16 19 22 21 25 31 30 36 40 35 36 34 33 44 50 51 50 47 47 47 47 50 51 52 54 54 55
9 8 9 8 8 7 7 6 5 6 6 5 7 5 6 16 23 29 32 25 19 17 15 15 14 16 20 22 22 22 21 18 15 18 21 20 16 14 15 14 12 12 11 11 13 12 10 11 10 9 9 9 9 12 13 11 10 12 13 13 16 20 24 27 27 29 35 33 32 34 33 32 29 27 38 46 45 41 38 41 43 44 47 50 51 52 53 55
9 8 8 8 7 7 7 5 4 5 5 6 5 4 14 26 27 32 37 25 15 17 16 16 16 16 16 17 16 18 21 20 17 18 20 20 17 14 14 15 14 14 14 13 13 12 11 12 12 10 9 9 9 11 13 12 12 11 12 12 16 23 25 28 31 31 35 34 28 27 31 33 29 25 30 35 34 33 33 34 37 39 43 47 49 50 51 53
9 8 8 7 7 7 6 5 5 4 5 5 5 9 19 26 27 31 31 20 14 18 18 16 17 16 15 15 14 15 19 19 16 16 17 18 18 15 15 16 16 19 20 17 15 14 12 12 11 10 10 10 8 9 12 14 13 11 12 15 18 23 25 27 31 32 33 31 26 25 30 36 34 26 27 31 30 30 31 30 31 33 38 43 47 48 50 51
9 8 7 6 6 6 6 6 6 5 5 5 6 14 23 25 27 26 21 18 17 18 18 17 17 16 15 14 13 13 15 16 15 15 15 16 18 17 15 14 14 17 20 18 15 15 15 12 10 10 10 10 8 8 12 14 14 12 13 16 19 23 26 28 31 33 31 26 25 27 31 35 33 27 25 26 24 24 28 30 30 32 35 40 44 47 48 50
9 8 7 6 6 6 5 6 7 6 7 7 7 17 26 28 30 26 19 16 17 16 17 18 16 15 14 13 13 14 14 16 16 15 15 16 18 19 16 14 13 14 16 17 16 15 17 16 12 10 11 10 9 7 9 12 13 13 11 13 17 20 21 24 27 26 25 25 28 32 34 32 28 26 26 24 22 22 23 27 30 33 34 35 40 44 46 48
8 8 6 6 8 9 10 13 17 17 13 8 9 19 24 24 26 26 21 16 15 16 15 16 17 15 14 15 15 15 15 15 16 15 15 15 17 19 17 15 14 12 14 17 18 15 16 16 11 9 10 9 9 8 8 11 12 13 12 12 16 17 17 22 25 24 22 24 31 36 33 28 25 25 25 23 23 23 22 24 28 32 34 35 38 41 43 46
9 9 6 11 19 20 22 24 29 33 23 8 10 18 19 17 17 20 23 20 17 17 16 16 17 15 16 17 17 17 14 14 15 15 16 15 15 17 16 14 13 12 13 17 18 16 16 16 11 9 10 8 9 9 9 10 11 13 14 13 15 13 13 21 27 28 25 21 28 35 29 25 24 21 20 22 22 22 23 24 24 28 34 36 38 39 40 43
10 7 6 21 32 29 27 26 32 40 28 9 10 16 13 11 13 18 23 22 17 17 17 16 17 17 18 17 17 17 14 13 15 15 15 16 15 15 15 14 12 11 11 13 15 15 15 15 11 10 10 8 8 9 8 9 10 13 13 13 15 13 15 24 27 28 27 21 26 32 25 22 23 20 21 23 21 19 21 22 23 29 36 36 37 37 35 36
10 7 11 31 41 36 32 30 39 44 25 9 13 18 15 11 11 15 18 17 15 15 16 17 18 18 18 18 17 16 13 12 14 14 14 16 16 14 13 13 12 11 10 10 14 14 13 13 13 11 9 8 8 9 9 9 9 11 11 10 13 15 21 31 29 25 26 23 24 29 27 24 22 19 18 16 17 19 20 23 25 28 33 34 35 36 32 32
10 8 15 36 48 44 38 39 50 43 21 13 15 16 17 13 10 13 13 13 14 13 14 16 17 18 18 18 16 14 14 13 13 14 15 16 17 15 13 13 12 11 10 9 12 13 13 14 15 12 10 9 9 9 9 9 9 11 11 10 12 14 19 25 22 19 22 23 23 26 28 26 22 20 17 14 18 22 21 25 28 26 28 32 33 34 33 32
15 17 22 39 48 44 40 42 48 37 19 19 17 12 17 16 12 13 12 12 13 12 13 14 15 17 16 16 14 13 15 14 13 14 15 16 16 15 13 11 11 12 10 10 11 12 14 15 16 14 11 10 11 10 8 8 9 10 11 12 13 14 16 17 18 18 18 22 25 24 23 22 20 22 22 18 19 22 23 26 27 25 26 28 28 29 31 31
23 31 32 38 35 33 42 43 41 32 21 21 18 11 13 13 12 14 12 13 14 11 12 14 14 16 15 14 14 15 16 15 14 15 15 15 14 14 12 10 12 11 10 12 11 11 15 17 17 15 13 12 10 9 7 6 7 8 10 12 12 13 16 16 20 22 17 20 26 23 20 18 17 22 23 22 20 18 20 24 24 23 23 25 27 27 28 29
40 34 22 31 31 35 50 46 38 34 25 23 21 15 16 16 13 12 10 12 14 12 12 13 14 15 14 13 12 13 15 13 12 13 13 13 13 13 12 10 11 10 10 13 11 11 18 21 19 16 13 12 9 9 10 7 7 7 7 10 9 11 15 14 20 24 19 21 24 21 20 15 19 30 27 21 22 19 21 26 26 22 21 23 27 28 28 28
67 42 16 33 49 53 58 49 43 42 30 25 26 23 25 26 21 18 15 13 14 12 12 13 12 12 11 11 10 11 12 11 12 12 12 14 13 11 12 11 11 10 11 12 11 13 19 22 22 19 16 13 9 10 12 9 9 8 7 9 8 10 11 9 20 27 22 21 21 22 22 13 23 47 42 28 29 26 23 27 28 26 22 21 26 28 28 29
89 63 36 47 60 63 59 47 46 47 38 36 36 31 31 30 26 25 22 19 17 15 15 14 13 12 11 11 11 11 12 13 14 12 11 14 14 11 12 11 10 12 11 13 15 15 19 24 24 21 20 19 16 14 14 13 11 8 9 9 8 10 10 10 24 32 24 20 19 19 20 13 24 51 51 37 34 29 24 26 29 31 28 25 27 27 27 28
92 70 51 53 62 68 61 46 45 46 45 49 49 42 37 33 29 27 23 21 21 19 18 18 16 14 13 13 13 13 13 12 13 14 15 16 14 14 15 12 13 14 12 15 16 13 20 29 24 21 23 23 22 20 17 16 14 11 12 11 9 10 10 12 23 25 23 29 27 18 17 16 25 38 37 32 33 30 26 26 29 29 26 24 26 27 27 28
90 70 58 60 62 65 60 51 50 48 47 54 55 47 42 36 31 28 26 25 25 23 22 22 22 21 19 18 17 16 14 12 13 16 19 17 15 18 21 21 21 20 20 27 25 20 30 35 26 24 25 20 20 23 20 16 14 12 12 11 10 10 10 14 20 20 25 34 29 24 25 20 20 25 26 29 32 30 27 27 29 26 21 22 25 27 29 29
95 77 73 76 67 55 51 52 55 52 49 55 56 51 47 42 35 32 31 28 28 28 27 25 25 27 27 26 25 23 20 17 16 16 18 17 16 17 20 22 24 23 27 35 32 26 32 31 23 26 27 19 16 19 18 15 12 11 12 11 10 10 10 14 18 22 32 29 19 32 44 29 17 21 23 27 31 32 33 31 29 24 20 24 29 32 33 32
93 82 82 85 74 60 55 56 59 59 56 57 55 49 45 42 39 39 36 31 29 29 30 31 28 27 27 27 28 29 27 26 25 22 20 20 19 18 16 18 23 23 24 28 28 27 26 21 18 21 22 17 13 13 15 15 12 10 10 10 10 11 12 15 16 22 32 25 14 35 54 37 18 18 19 22 27 30 30 27 25 24 23 27 32 34 34 35
86 84 83 84 80 72 69 69 69 67 62 57 54 50 48 47 45 44 40 36 34 29 29 33 31 29 32 33 35 37 33 29 28 27 25 24 23 23 20 19 23 25 23 23 27 28 24 22 23 18 15 16 14 12 14 15 13 11 10 9 9 10 11 13 14 16 23 22 15 30 49 39 19 14 16 18 21 24 24 23 24 27 26 28 33 34 33 34
86 86 86 90 86 77 76 76 72 68 62 54 50 48 49 53 52 48 44 43 42 34 30 35 37 37 39 41 46 47 39 35 36 37 35 31 29 30 28 25 26 27 27 26 28 28 26 32 35 23 16 18 14 12 13 14 14 13 11 10 9 10 11 11 12 15 21 25 20 25 41 38 23 19 21 21 22 25 27 28 28 28 27 30 35 35 32 32
80 81 93 102 90 75 74 72 66 65 61 53 52 51 50 51 51 49 48 44 42 39 36 38 39 37 38 43 49 47 40 41 43 42 40 38 35 34 33 31 30 34 37 35 31 30 29 33 34 26 22 21 15 13 14 12 14 14 12 12 11 11 12 12 14 17 20 24 27 27 30 28 22 23 26 26 28 29 31 34 33 28 28 32 34 31 30 31
79 79 94 102 90 75 72 70 67 66 58 52 58 61 56 51 49 50 53 49 42 39 38 38 39 38 40 45 48 45 40 38 37 37 40 41 38 35 34 35 34 35 43 47 44 40 34 30 30 29 27 24 19 16 14 13 18 19 15 13 12 12 13 12 13 18 18 19 24 25 21 19 22 26 26 25 28 31 31 31 29 27 28 29 26 22 22 25
Wind_Speed
15 16 16 17 17 17 17 17 18 18 18 18 18 18 18 18 17 17 18 18 18 18 18 19 19 19 19 21 22 23 24 24 23 24 25 23 20 20 20 16 14 15 15 16 17 16 15 14 13 12 13 13 8 6 10 10 9 6 2 2 2 3 5 7 10 7 5 8 12 15 17 12 11 11 7 8 9 15 14 6 10 5 2 14 16 25 32 26
16 16 17 17 17 17 18 18 18 18 19 19 19 19 19 19 18 18 18 18 19 19 18 19 19 19 19 20 21 24 25 26 27 26 22 17 15 17 19 18 18 18 19 18 19 20 19 17 15 15 14 10 7 5 6 9 10 6 1 2 3 4 5 8 12 10 7 11 15 15 17 13 12 13 11 9 11 15 11 7 9 7 11 16 20 29 29 25
17 17 17 18 17 18 18 18 18 18 19 19 19 20 19 20 19 19 18 18 19 19 19 19 19 20 20 20 21 23 24 28 28 20 9 5 6 8 10 14 18 19 21 20 19 19 18 17 15 14 14 8 6 7 5 7 9 6 3 4 5 4 4 7 14 15 10 15 18 15 16 13 13 15 12 9 13 14 10 11 13 12 16 19 26 31 26 25
18 18 18 19 19 19 19 19 19 19 19 19 20 20 20 21 21 20 19 18 18 19 19 19 19 20 20 20 20 21 23 25 19 5 3 2 8 7 5 6 15 19 20 19 19 17 15 17 16 14 13 7 6 8 6 8 7 4 5 6 3 4 5 8 17 17 14 19 19 16 15 13 14 15 12 12 12 10 12 17 19 20 23 25 31 31 26 26
17 18 19 19 19 19 20 20 20 20 20 20 20 20 21 21 21 21 21 20 18 19 20 19 20 20 20 21 20 20 19 14 3 5 4 10 12 11 7 4 8 15 19 19 19 17 16 18 17 15 12 6 6 7 6 11 9 3 6 8 4 6 5 9 18 18 17 19 18 18 15 14 16 13 14 18 12 7 14 20 20 24 29 31 35 33 28 26
17 17 18 19 19 20 20 20 21 21 21 21 21 21 21 21 22 22 22 21 20 19 20 20 20 20 21 21 21 20 12 6 6 2 15 19 15 13 10 9 7 10 17 20 20 18 18 20 18 15 10 6 8 7 5 10 11 6 5 7 7 9 7 8 18 20 20 21 19 19 16 17 17 12 16 21 13 4 10 19 21 24 29 33 37 35 31 28
17 17 17 18 18 19 20 20 21 21 21 21 21 21 22 22 22 22 22 22 21 21 20 21 22 21 22 21 22 19 12 17 17 12 17 16 11 11 10 12 12 11 16 22 23 21 23 24 21 16 10 5 7 8 5 7 10 8 6 5 8 11 11 11 20 24 25 24 22 19 17 20 19 11 14 22 15 4 6 17 23 25 28 33 37 37 35 33
17 17 17 17 18 19 19 20 20 21 21 21 21 22 22 22 22 23 23 23 23 22 22 22 22 22 22 21 20 16 18 22 18 12 12 10 9 9 8 11 14 14 16 22 26 25 26 27 24 17 9 6 7 9 6 4 7 8 8 5 6 9 11 14 22 25 24 20 21 20 17 19 17 11 14 20 15 5 5 15 23 26 29 34 37 37 36 35
17 17 17 18 18 19 19 19 20 20 20 20 21 21 22 23 22 23 23 23 23 23 23 22 23 23 21 21 17 13 19 19 13 9 9 12 14 13 10 9 12 15 17 21 25 25 26 26 26 19 9 7 8 8 7 5 5 8 8 5 7 9 8 15 21 23 20 17 21 20 14 14 12 10 11 16 12 6 8 17 23 27 31 35 37 36 36 35
17 17 17 18 18 19 19 19 20 20 20 20 20 21 22 22 23 23 23 23 23 23 23 22 23 23 21 20 12 8 15 15 12 13 14 17 17 15 12 10 11 16 19 22 25 26 26 24 25 20 8 7 9 6 7 5 2 4 5 2 6 6 6 16 20 20 18 17 23 19 11 11 12 8 7 13 14 10 13 20 24 29 32 35 35 35 36 35
18 18 18 18 18 19 20 19 20 20 20 19 19 20 21 22 22 23 23 22 22 22 21 21 22 22 21 19 12 13 17 16 16 18 18 18 16 14 12 11 11 15 21 25 26 25 23 18 21 18 5 6 9 6 6 5 3 3 7 4 1 3 7 15 18 19 16 12 18 17 11 9 9 8 7 13 17 14 17 22 25 28 31 34 34 34 36 35
19 19 20 19 19 19 20 20 21 20 20 19 19 19 20 22 22 22 23 22 22 20 20 20 20 20 19 18 21 20 18 17 19 20 20 18 16 13 9 10 10 13 22 26 26 23 18 14 19 15 5 7 8 4 4 4 1 6 8 4 4 6 7 11 13 18 15 9 16 16 9 6 10 9 7 15 18 16 19 22 24 27 28 30 31 32 35 36
21 21 21 20 20 20 20 21 21 21 20 19 19 19 20 21 21 22 22 21 20 19 18 17 17 19 15 16 24 22 17 18 19 18 17 15 13 9 6 7 5 12 20 23 23 22 16 15 18 12 6 8 5 3 2 2 5 8 4 3 6 5 5 7 8 15 12 10 21 17 5 8 14 10 9 16 20 18 18 19 22 24 24 27 28 29 33 35
21 21 21 21 21 21 21 21 22 21 20 19 19 19 20 20 21 21 21 20 19 16 15 14 15 16 12 17 24 20 15 16 11 7 6 7 7 6 3 2 2 12 16 16 19 20 16 15 15 8 6 7 4 3 4 3 4 6 3 3 5 4 6 6 7 14 10 9 21 17 7 7 10 11 12 18 22 21 20 19 21 22 23 25 26 28 31 33
21 21 22 22 22 21 21 21 22 22 20 20 19 19 20 20 20 20 19 18 16 14 14 14 14 13 12 21 23 12 9 7 1 4 6 4 3 6 5 4 5 12 15 14 16 17 16 15 12 6 5 7 5 3 4 2 2 4 4 4 4 3 7 6 7 14 9 8 17 14 7 6 5 11 15 18 21 22 21 21 21 21 22 23 24 26 27 30
20 21 21 22 22 21 21 21 22 22 21 19 19 19 19 20 19 19 18 16 14 13 13 13 13 10 9 14 11 4 4 1 4 3 9 7 2 5 8 8 8 11 14 14 13 12 14 14 10 6 6 6 6 4 4 3 3 3 3 4 6 5 6 6 8 12 8 10 15 13 7 4 1 9 17 20 21 22 19 20 22 22 23 23 23 24 24 25
21 21 21 21 21 20 21 21 22 23 21 19 19 18 18 20 18 16 15 14 13 13 14 14 13 11 11 12 8 7 7 3 3 5 9 9 3 6 10 12 11 11 13 13 12 11 11 11 8 6 4 3 4 6 6 4 5 4 2 3 5 5 7 7 8 11 10 11 14 14 9 5 2 7 16 21 22 22 19 19 21 21 22 22 22 23 23 25
22 22 22 22 21 20 20 20 21 22 21 19 19 19 18 18 16 14 13 13 12 12 12 12 8 6 8 8 6 6 6 7 8 9 9 8 3 9 11 11 12 13 12 10 11 11 9 7 4 4 4 4 5 7 8 6 6 7 6 5 4 5 8 9 8 10 14 13 14 14 13 12 4 6 14 19 21 22 19 19 20 21 22 22 23 23 24 27
23 23 23 23 22 20 20 20 21 21 21 18 16 18 16 14 12 10 9 9 9 8 7 6 7 6 9 12 13 13 13 16 17 14 10 7 3 11 13 10 12 14 10 7 8 10 8 5 3 5 6 7 8 10 10 8 10 12 10 8 8 8 8 7 5 8 15 12 13 15 14 15 8 7 12 16 19 20 18 18 18 19 21 21 23 24 25 29
22 23 23 24 23 20 19 21 20 20 20 16 14 14 10 9 7 5 8 13 13 13 15 16 16 21 25 27 27 23 21 21 20 16 10 6 4 10 14 13 12 11 8 6 6 8 9 6 6 8 9 11 12 12 9 5 8 12 11 9 10 9 7 8 6 8 14 10 11 14 11 10 6 5 10 15 17 18 18 18 18 19 20 21 23 24 27 32
22 22 23 24 23 21 19 20 20 19 17 13 14 10 5 5 3 4 12 18 18 17 21 24 22 28 33 31 27 24 18 15 16 15 10 7 6 8 12 12 10 6 4 5 4 5 8 8 8 9 10 12 11 10 7 5 5 9 10 8 9 8 5 7 7 9 13 10 9 9 9 10 5 3 9 14 16 18 21 22 20 22 21 20 23 24 28 31
22 22 24 24 23 22 19 19 20 17 11 10 12 5 5 6 5 6 10 13 22 24 23 25 24 29 32 29 27 26 18 11 14 17 14 12 9 8 10 9 7 5 4 5 4 4 7 9 9 8 7 7 5 6 8 7 7 7 7 7 7 6 2 3 6 8 10 9 7 6 9 11 5 4 10 15 17 19 22 23 21 21 21 22 24 25 27 26
22 23 24 24 25 22 19 21 19 11 9 12 9 1 3 5 6 9 7 8 20 26 23 22 22 25 26 22 19 20 18 13 12 16 16 17 14 11 11 8 6 6 6 7 7 6 7 7 8 7 6 8 5 6 9 7 6 6 6 7 5 6 6 5 7 9 10 6 3 5 8 8 4 5 9 16 20 17 17 20 19 20 22 25 28 29 29 28
23 24 24 25 26 22 20 20 13 8 12 13 4 5 2 6 7 11 7 6 11 17 17 14 14 17 16 12 9 13 18 15 13 14 15 19 17 12 12 8 6 6 6 9 9 8 5 2 7 9 8 11 9 8 10 7 6 5 6 9 5 7 8 4 5 8 7 3 3 6 6 8 7 9 10 12 17 17 16 19 19 21 23 25 26 27 29 33
24 24 25 26 27 24 21 15 7 10 14 8 3 6 3 8 11 11 4 3 6 8 9 6 8 9 6 4 5 10 12 12 17 18 15 20 20 12 8 8 6 6 7 8 7 8 6 1 8 12 9 11 10 9 11 10 7 6 7 9 8 10 8 5 10 9 5 4 7 9 6 7 7 11 12 9 12 16 17 18 21 23 24 25 24 24 28 33
24 24 25 27 27 27 21 11 9 14 12 3 4 5 6 10 11 8 1 1 4 4 3 3 5 2 1 5 8 9 6 6 12 16 16 20 22 14 8 6 3 4 7 7 3 4 4 3 7 11 11 12 11 9 11 11 8 6 7 9 9 9 9 11 13 10 5 4 7 12 10 7 4 9 12 10 11 15 15 17 21 24 25 27 28 28 29 33
24 23 25 26 26 28 24 15 14 15 8 2 5 8 9 9 9 4 0 2 3 2 1 3 4 1 2 5 11 10 3 1 3 11 19 21 21 19 12 7 4 3 5 4 3 3 4 6 6 8 12 12 11 10 10 11 10 4 5 11 12 10 11 14 13 10 5 2 4 10 9 6 6 5 7 11 12 12 15 17 20 24 27 29 30 30 32 37
24 23 24 26 24 25 25 21 16 13 7 5 6 7 7 9 6 2 0 2 1 1 1 3 3 1 1 6 15 10 3 2 1 6 20 23 18 16 11 10 9 7 7 6 6 2 4 8 8 8 10 9 9 8 10 13 10 3 4 9 12 11 12 14 12 8 4 2 4 7 5 4 7 3 4 9 11 12 17 19 20 25 28 30 32 33 35 40
25 23 23 26 24 22 23 21 15 12 9 6 5 7 8 8 4 2 1 1 1 1 1 3 2 1 2 6 13 11 6 2 1 1 13 22 18 11 8 12 13 10 10 9 8 3 3 8 11 11 8 7 8 5 10 15 8 3 7 7 5 5 7 9 8 5 4 4 6 8 9 6 6 3 5 6 8 12 16 16 18 25 30 31 32 33 35 38
26 23 23 25 25 23 23 19 13 13 11 8 7 7 6 3 3 3 3 2 2 0 1 2 2 2 3 3 6 9 7 5 2 2 8 15 15 8 6 12 12 8 7 7 9 6 2 3 7 8 7 7 7 4 8 13 8 10 10 8 7 4 3 2 1 2 4 6 6 10 15 10 7 4 7 6 8 12 13 12 15 21 27 31 31 32 33 37
27 24 23 24 25 24 24 20 15 14 13 8 6 4 2 2 2 4 4 1 2 2 2 1 1 2 1 1 2 3 5 5 3 6 7 8 9 6 6 8 6 5 6 6 6 4 4 5 4 5 7 7 7 5 6 5 7 10 8 7 6 3 3 3 2 2 5 6 5 7 13 12 10 6 6 8 11 12 12 12 14 18 26 32 33 33 33 37
28 25 23 22 22 23 22 19 16 16 13 7 4 3 4 3 3 4 2 1 2 2 1 1 2 1 2 2 2 3 3 4 5 7 8 8 7 8 9 8 7 6 6 7 6 3 7 8 3 3 7 10 9 7 5 3 5 8 7 8 7 3 4 4 3 4 5 5 1 4 9 9 9 9 7 8 11 13 14 15 16 17 22 28 32 35 36 38
28 26 24 21 20 21 20 17 16 16 12 7 5 3 3 4 5 6 5 3 2 1 1 1 1 2 4 4 2 2 2 2 5 7 8 8 8 9 8 6 11 9 4 6 8 5 6 5 4 7 5 9 13 9 7 6 6 9 8 9 8 5 6 6 3 1 3 4 0 4 8 6 5 8 11 13 18 18 16 19 19 13 14 20 26 31 34 36
29 27 26 21 18 18 18 15 14 14 11 9 7 3 5 6 3 5 9 7 2 2 0 1 3 4 3 3 3 1 2 0 2 5 7 7 8 9 6 4 10 8 3 5 7 7 9 6 8 10 4 8 14 11 8 7 7 10 8 7 8 6 6 5 4 4 4 2 2 5 6 6 4 2 6 12 15 15 14 18 20 16 15 17 20 25 29 33
29 26 24 20 15 14 14 12 11 12 10 11 8 4 8 7 2 3 6 6 3 4 2 1 3 6 4 2 1 1 2 0 2 2 6 7 7 9 8 7 9 7 5 6 4 5 10 7 5 7 5 8 11 8 6 8 7 7 5 7 8 6 5 3 2 3 3 1 2 4 4 4 3 5 7 8 9 11 12 14 16 18 19 16 17 24 30 34
30 25 21 15 11 11 12 12 10 10 12 13 7 6 8 4 2 3 3 3 4 2 2 1 2 4 5 2 1 0 2 1 1 1 4 5 5 9 10 8 10 11 9 7 3 3 7 6 4 5 5 7 10 8 9 9 6 4 5 8 4 3 5 4 1 2 1 4 4 4 4 3 2 7 9 7 8 11 11 10 13 16 18 18 20 26 32 35
30 29 22 11 8 12 11 12 12 11 15 13 6 7 6 3 4 4 1 1 2 1 2 3 3 3 4 2 3 1 2 2 0 1 1 3 3 6 8 7 11 15 14 11 5 2 5 5 6 9 10 11 11 10 11 11 7 4 7 8 5 2 2 2 3 3 4 8 4 4 7 5 3 4 3 3 7 11 11 9 10 11 15 20 23 29 34 37
31 31 20 6 7 14 13 9 11 15 16 10 8 7 5 5 6 4 2 1 1 1 3 5 3 2 2 2 2 1 3 2 0 2 1 3 3 5 8 7 9 15 18 16 8 3 5 5 4 9 13 10 8 8 9 10 6 1 4 9 6 4 4 2 4 5 5 7 4 4 7 6 5 4 3 5 7 9 10 8 8 10 15 20 23 29 34 36
29 25 13 5 9 13 18 13 7 19 13 7 9 7 4 6 6 7 7 3 1 2 3 4 4 2 2 2 1 1 2 2 2 2 2 3 2 4 6 5 8 14 18 18 9 4 5 6 4 5 6 6 7 8 10 10 6 1 3 7 3 3 5 4 4 4 6 7 4 5 5 4 6 5 6 10 9 8 11 7 7 11 17 21 23 27 33 37
24 16 7 6 11 14 16 11 7 13 6 5 7 5 2 4 6 11 14 9 3 4 4 3 5 4 4 3 4 3 2 4 4 3 2 3 2 3 5 5 6 9 13 15 10 5 5 6 5 2 2 4 6 8 11 12 9 6 7 8 4 2 1 3 3 2 4 6 5 6 6 4 4 5 8 12 11 10 11 9 8 10 16 24 28 31 35 38
20 8 4 8 16 18 14 5 5 6 4 3 3 3 3 4 4 7 12 11 8 7 5 4 6 5 4 4 4 3 3 4 5 5 3 4 4 4 5 7 6 6 7 9 8 6 5 4 6 4 4 7 8 8 12 14 13 10 9 9 9 7 4 5 7 3 2 5 4 5 7 4 5 6 8 10 11 11 10 8 8 10 14 19 25 30 34 36
13 4 7 14 19 17 9 3 4 4 4 4 3 4 5 6 6 6 7 8 8 7 5 4 5 5 5 5 5 4 4 5 6 6 5 6 8 6 4 6 8 8 6 6 8 9 5 3 6 7 7 9 8 6 7 11 12 13 12 10 11 9 8 10 9 4 3 3 1 1 5 4 4 4 7 10 10 10 9 7 8 13 17 16 16 22 28 32
9 12 15 13 10 6 2 4 3 4 5 6 7 8 7 5 4 4 4 6 6 5 5 5 6 7 7 7 7 7 7 7 8 9 8 7 10 11 10 7 6 5 4 4 7 9 5 2 5 7 6 5 4 2 2 2 7 11 12 12 12 12 12 11 6 4 5 6 4 3 5 4 3 2 4 7 8 9 11 11 11 15 20 18 14 17 23 29
13 19 16 6 4 1 2 3 3 3 4 6 7 9 9 8 6 6 6 5 4 4 4 5 6 7 8 8 9 9 8 7 8 10 10 7 6 10 15 15 8 3 5 5 5 7 6 4 5 6 6 5 6 6 5 4 5 8 8 9 12 15 15 7 1 2 5 9 10 7 6 5 3 1 1 5 8 9 13 15 13 14 19 18 15 17 21 25
12 14 9 4 4 2 4 2 3 2 4 5 6 7 8 8 8 11 12 8 7 6 4 5 6 7 7 7 8 9 10 9 7 7 7 6 4 6 11 15 11 6 9 10 9 9 6 4 6 8 9 9 9 9 8 5 4 5 5 7 10 15 16 7 2 5 7 6 9 9 6 4 2 2 3 5 6 9 13 15 14 17 21 21 19 19 20 24
6 5 5 6 5 4 6 2 3 3 4 5 5 5 6 7 7 11 13 11 11 11 8 6 6 6 7 9 9 9 11 12 10 7 6 6 4 2 3 6 7 9 13 14 12 9 2 3 9 11 10 10 10 8 6 6 7 7 9 11 11 13 14 10 6 8 5 4 6 8 6 6 6 6 6 7 7 9 12 12 13 21 26 24 23 22 21 24
3 2 2 5 6 4 3 0 4 5 5 5 4 3 5 7 6 6 10 9 9 11 9 8 8 8 8 10 10 10 11 12 13 12 10 9 6 5 6 8 7 8 10 10 11 10 2 4 12 14 13 14 14 13 10 11 13 14 14 15 15 15 16 14 12 8 6 5 9 7 6 9 10 9 9 10 9 9 9 9 14 24 27 24 22 21 21 23
4 4 4 5 4 3 2 4 7 9 8 5 4 4 7 9 7 5 5 4 4 8 8 6 10 12 11 9 8 7 8 9 11 11 9 9 8 8 9 9 7 5 5 4 7 8 3 7 10 13 15 16 18 17 12 12 14 15 16 17 17 17 18 17 16 11 8 8 11 7 8 10 11 10 10 11 11 11 14 19 23 24 23 21 21 22 23 24
5 6 6 6 4 5 9 11 11 10 8 6 4 5 8 10 8 5 3 4 4 5 8 7 8 7 7 6 4 5 6 7 8 7 6 8 8 7 7 7 5 3 3 3 4 3 2 5 6 9 14 16 18 17 12 12 14 14 16 17 17 19 20 20 19 16 14 13 12 9 11 12 11 11 11 12 14 14 15 19 20 19 20 21 22 25 25 26
5 5 6 7 7 10 12 11 8 7 6 6 5 5 6 7 5 6 6 6 5 2 5 6 3 3 4 4 4 7 7 5 5 4 4 6 7 5 5 4 2 2 2 3 1 1 2 2 1 5 9 12 14 14 12 14 15 16 17 16 15 16 17 18 17 14 13 12 9 8 9 9 8 8 7 8 10 9 11 13 14 17 20 21 23 26 27 28
7 6 7 7 7 8 8 7 6 5 5 4 4 3 4 3 5 10 8 8 10 8 3 1 5 7 5 4 6 7 4 3 6 8 8 8 7 4 3 1 2 1 1 3 2 3 3 1 1 3 5 7 8 11 13 15 16 18 19 18 15 13 12 13 11 9 11 10 8 7 6 6 7 6 6 6 6 6 9 11 14 18 20 21 25 28 29 30
8 6 5 6 6 6 6 6 5 5 4 2 2 4 5 5 7 10 7 5 8 9 5 7 9 7 5 6 5 3 5 9 13 16 15 13 13 11 8 6 4 4 1 2 1 4 4 2 2 0 4 5 3 5 8 9 10 12 15 17 16 13 11 11 9 10 12 11 9 8 7 7 7 5 6 8 8 8 11 14 18 21 22 24 27 30 31 32
Wind_Direction
322 322 322 322 323 322 322 323 322 322 322 321 321 321 321 323 324 324 324 324 326 327 326 325 323 323 324 323 322 322 320 316 312 303 292 283 286 283 269 257 244 238 235 229 220 208 192 186 184 183 179 183 198 205 204 202 182 174 197 242 232 217 199 181 183 173 146 159 164 169 175 163 155 167 151 145 141 144 150 135 158 163 130 168 172 168 165 164
319 319 318 318 319 319 319 319 319 320 318 319 319 318 319 319 319 320 321 322 323 325 326 325 323 323 323 323 323 323 321 318 312 305 297 290 290 282 270 251 235 230 227 223 217 210 203 195 187 183 179 183 196 200 209 193 183 189 181 226 241 223 196 186 178 168 162 164 163 171 175 169 161 161 159 158 151 155 152 133 148 128 134 161 166 165 165 166
318 318 317 316 316 316 316 316 316 316 316 317 316 317 317 316 316 316 317 318 319 321 323 324 323 323 324 324 323 322 323 321 314 307 291 289 323 309 284 248 228 224 224 223 219 215 213 206 199 191 184 191 196 191 203 184 188 206 209 237 245 215 205 193 179 177 174 159 160 169 171 171 162 160 171 172 161 171 172 156 161 151 146 156 164 166 165 166
318 318 317 316 315 314 314 314 313 313 313 313 314 315 314 314 313 313 314 314 315 317 318 321 321 322 325 324 324 323 326 323 312 302 146 6 345 330 316 245 215 217 222 220 220 216 212 210 213 204 191 198 196 192 201 190 190 186 203 243 243 181 202 202 187 182 171 161 162 161 164 169 163 165 174 165 162 191 201 183 177 168 160 159 164 167 167 168
322 320 319 317 316 315 313 313 312 312 311 311 312 312 311 311 310 310 311 310 311 312 313 316 317 320 321 322 324 322 328 327 281 121 6 323 321 306 288 270 207 209 216 217 216 204 195 202 205 197 194 197 186 192 210 201 198 182 218 248 234 180 207 199 184 180 166 158 156 158 168 164 160 173 179 172 174 198 204 195 185 175 169 167 169 169 169 171
325 323 321 320 318 316 314 313 312 311 310 310 311 310 310 308 307 308 307 307 307 306 308 311 313 315 317 319 319 317 321 294 235 285 318 306 308 302 273 258 241 215 211 213 212 194 183 189 189 185 191 197 185 193 205 195 201 223 233 248 237 212 225 194 176 177 164 156 161 167 167 154 159 183 184 186 195 205 203 197 187 181 176 171 172 173 172 175
326 325 324 322 321 319 317 315 313 312 311 310 310 309 308 305 305 304 303 305 303 303 304 306 309 310 313 314 313 313 291 271 276 296 301 294 301 305 276 255 250 235 214 207 203 190 180 182 184 184 187 190 190 200 205 180 192 228 241 247 252 237 240 208 177 177 170 166 167 162 159 162 172 180 180 194 208 250 231 202 190 182 178 174 175 178 179 181
327 327 326 325 323 321 319 318 316 315 313 312 311 309 306 304 303 302 301 301 300 301 300 302 305 306 310 310 310 308 282 279 296 307 293 287 304 314 294 260 247 238 223 211 204 192 181 182 186 185 188 195 190 191 192 183 186 220 237 242 261 255 247 210 179 174 171 164 157 154 165 175 176 163 175 197 208 252 228 196 190 181 178 178 178 180 182 184
329 329 328 326 325 324 322 321 319 318 317 316 314 310 307 304 302 300 299 298 298 298 298 300 301 302 306 304 306 296 283 292 311 312 304 302 304 312 309 276 250 234 222 212 205 194 183 186 190 187 194 196 185 180 181 208 200 204 225 250 267 263 233 189 173 169 165 154 153 157 170 172 164 158 181 200 206 227 186 179 184 180 177 178 180 183 185 187
328 328 327 325 325 324 323 323 322 321 321 319 317 313 308 305 302 300 298 297 297 296 297 297 297 300 300 298 296 275 284 301 310 305 305 304 303 310 307 292 261 229 214 202 197 193 188 192 193 190 200 191 180 176 169 193 225 193 203 268 272 259 195 173 164 163 158 156 165 162 160 163 162 175 197 196 201 206 171 169 179 179 178 179 182 185 188 190
327 326 325 323 324 323 322 323 322 322 322 322 321 315 310 306 303 300 299 298 297 297 296 295 297 297 295 290 266 258 286 298 301 300 297 299 302 306 303 295 272 222 203 195 191 192 191 193 191 187 199 185 174 176 185 214 291 183 157 88 52 129 148 163 157 159 153 157 171 150 133 150 166 206 213 181 188 196 173 167 175 177 178 181 184 187 191 194
327 326 324 322 323 322 321 322 320 321 322 323 321 317 313 308 305 303 302 300 298 298 296 297 297 294 294 281 261 269 292 294 292 293 293 296 294 296 302 300 278 211 195 191 186 183 181 183 186 186 189 175 163 163 205 239 249 160 158 105 101 115 135 155 155 164 157 155 162 136 117 169 195 212 189 172 177 179 174 169 172 175 178 182 185 189 195 197
327 325 324 323 323 322 322 321 320 320 321 322 321 318 313 310 308 305 304 302 301 301 299 298 295 293 289 269 273 287 295 287 287 291 290 289 282 278 293 309 278 193 189 194 187 175 172 174 178 182 177 171 161 158 147 114 139 149 159 134 134 131 150 157 154 165 157 151 161 154 171 212 209 200 151 170 174 166 172 172 173 176 178 183 186 191 197 199
326 325 324 324 324 323 322 322 320 320 321 322 320 317 313 312 311 307 306 304 302 302 298 295 291 292 277 268 287 297 291 285 290 307 303 283 264 240 237 331 203 174 175 194 191 177 180 180 177 181 183 183 166 143 112 97 147 147 139 150 160 174 164 154 160 169 159 159 172 179 226 224 201 187 159 171 175 169 175 176 178 179 179 185 187 193 199 201
326 325 324 323 324 323 323 323 320 320 322 323 319 316 313 312 312 309 307 303 301 297 291 291 288 289 279 283 295 292 280 282 203 40 21 352 256 199 180 140 158 166 163 179 183 181 190 190 192 194 183 190 179 149 134 121 137 147 163 176 202 209 157 151 176 181 170 167 183 191 227 243 194 176 170 174 176 176 180 180 182 183 182 187 189 194 199 202
328 326 323 323 324 323 324 323 320 320 323 324 318 315 314 313 313 309 305 300 295 288 286 288 285 289 286 290 299 262 262 237 150 16 8 357 317 172 168 154 151 165 170 179 181 181 188 187 192 186 165 181 185 166 148 146 152 180 227 186 192 197 162 161 181 196 179 153 186 205 226 256 171 172 173 176 180 181 184 184 185 186 186 188 191 196 199 202
329 327 324 323 324 325 325 323 320 321 324 326 318 315 315 314 313 308 300 292 286 282 283 284 280 282 274 271 274 252 252 228 210 308 339 333 283 172 167 167 167 171 170 180 187 179 175 174 176 178 171 169 173 173 172 180 178 183 230 200 201 195 170 164 169 193 184 161 188 210 230 244 121 163 178 179 183 185 189 188 187 188 188 191 193 197 200 204
331 329 326 325 325 328 327 323 321 321 325 328 321 319 319 315 311 303 291 284 283 281 283 277 263 274 270 257 262 249 247 264 276 289 307 316 246 172 169 172 173 169 158 163 180 179 174 172 178 177 170 175 174 183 190 188 180 185 196 198 203 199 190 181 167 179 181 183 196 199 224 236 191 156 185 186 185 189 194 192 190 191 191 193 195 199 204 208
331 329 327 325 326 330 331 325 323 324 327 328 323 321 320 316 310 297 284 276 274 277 282 253 221 257 271 265 270 270 277 284 285 283 283 293 222 173 173 173 167 162 155 153 172 180 175 162 189 192 182 185 182 192 200 186 184 191 195 202 194 190 197 181 145 161 174 189 205 200 218 230 204 164 187 191 190 195 198 196 195 196 196 196 198 202 206 212
332 329 327 325 326 331 334 326 324 329 329 328 331 330 331 331 318 294 302 292 273 265 270 262 253 262 266 269 275 278 283 282 276 275 268 256 203 169 173 168 157 158 163 165 167 176 183 186 201 197 183 179 183 193 193 179 191 192 192 211 207 195 189 168 132 148 172 191 216 214 233 242 219 174 189 194 195 200 201 200 200 199 199 199 201 204 208 215
334 330 327 325 325 331 335 327 326 332 333 336 342 351 34 28 3 322 322 306 288 279 276 275 270 266 267 269 272 274 281 283 269 258 239 210 175 164 173 163 154 168 171 149 131 155 190 207 203 192 183 179 184 186 166 147 184 193 192 205 212 208 190 166 154 148 169 197 218 220 251 256 244 196 194 196 199 206 204 202 204 202 201 203 204 207 211 216
336 332 328 325 324 330 335 328 327 333 339 343 342 1 92 58 31 343 327 303 296 298 290 284 277 270 272 273 269 265 263 266 261 247 223 204 198 186 175 169 175 174 148 144 137 159 200 218 200 183 181 171 167 177 171 165 174 186 195 203 210 198 139 144 169 153 162 200 217 203 238 247 237 212 205 203 208 213 210 207 207 205 202 204 207 209 211 212
337 334 329 326 324 328 335 329 329 337 340 338 330 163 98 31 17 341 317 277 294 301 291 282 275 271 277 281 272 254 234 229 248 246 225 208 207 200 177 171 185 163 151 181 188 186 200 218 193 167 164 164 150 171 173 164 177 185 188 204 208 169 176 202 187 170 166 188 201 179 233 253 223 213 218 213 216 219 218 215 213 211 209 210 212 213 212 212
338 335 330 328 325 326 336 332 333 352 341 335 310 171 50 360 357 340 310 249 287 297 287 276 268 268 275 284 264 223 216 219 228 233 220 199 186 183 182 168 165 170 173 186 197 207 208 213 168 158 172 181 168 167 173 171 187 199 200 208 195 160 192 209 148 157 160 151 142 154 237 260 211 214 225 213 215 221 221 218 217 218 218 219 219 217 217 219
338 336 331 330 325 324 335 335 333 349 343 341 183 178 350 345 343 340 309 249 280 280 280 269 248 255 259 253 214 198 209 223 227 224 208 192 179 163 168 168 172 190 180 172 189 220 226 193 157 163 177 190 180 174 185 186 183 202 216 216 200 175 177 142 133 147 163 207 193 174 235 259 197 213 225 199 203 218 218 218 220 219 219 222 222 219 219 221
336 337 332 330 327 325 334 340 329 341 352 21 188 237 314 330 335 339 311 277 286 251 264 228 212 225 220 215 191 178 194 226 240 228 207 200 192 174 160 160 182 195 165 158 178 233 223 167 168 174 173 184 192 191 190 189 190 204 202 200 202 184 163 150 155 165 186 219 194 186 221 253 195 211 217 194 201 216 215 219 223 220 218 220 221 221 221 221
334 336 331 329 329 327 331 334 330 338 352 335 278 278 301 322 331 336 224 284 275 219 170 190 197 237 289 210 173 164 189 263 255 213 202 202 193 189 189 166 162 165 132 146 201 216 179 167 183 191 180 183 196 197 186 188 199 201 167 179 186 180 169 164 168 183 189 121 159 190 217 262 254 229 196 191 206 218 218 223 224 221 219 219 220 221 221 223
331 334 330 326 327 326 324 324 328 335 327 310 304 288 301 315 306 281 252 297 273 144 177 195 202 258 276 183 182 191 315 322 282 206 200 199 187 187 198 179 169 161 147 176 208 176 157 184 190 187 189 197 199 188 171 183 203 201 148 175 181 181 179 176 182 190 172 151 188 194 198 246 252 246 136 186 207 220 223 223 223 221 220 218 219 219 221 226
329 332 330 323 321 320 315 316 323 321 308 302 300 295 307 305 269 208 207 258 299 45 181 184 164 151 125 159 196 229 297 275 294 346 191 194 190 188 197 182 169 159 165 193 218 200 168 201 196 188 195 204 202 183 167 183 201 139 131 136 139 159 168 178 196 176 144 207 215 188 184 215 253 213 141 180 212 225 226 222 221 221 218 218 218 217 220 225
327 330 330 322 318 316 310 312 314 304 298 294 292 297 306 281 179 176 199 216 311 277 187 197 157 144 148 151 213 236 248 253 278 104 163 185 192 189 170 170 166 159 167 202 222 215 209 200 187 197 211 197 191 189 181 188 170 131 132 118 97 93 117 133 210 132 159 223 223 192 188 207 257 224 163 185 214 217 219 221 221 219 218 218 218 217 216 221
326 328 328 322 317 312 308 311 308 295 290 289 294 287 229 152 168 216 202 206 306 222 189 229 152 112 152 169 293 230 219 245 221 155 158 177 189 174 143 154 161 163 174 198 209 212 239 220 177 209 215 186 181 195 203 199 155 147 148 138 127 109 122 116 84 169 206 223 224 205 193 203 243 242 182 205 224 219 216 221 218 213 215 216 216 216 215 219
326 325 324 320 312 304 301 303 296 286 285 283 273 231 178 176 226 220 188 294 275 185 145 165 143 348 296 251 240 224 225 232 196 175 172 177 186 181 178 176 168 176 192 196 189 191 227 223 205 226 206 184 189 193 188 194 185 182 164 157 170 166 168 182 180 193 218 226 222 176 184 201 241 254 242 232 240 236 227 229 227 217 214 213 213 213 214 218
327 326 323 318 310 300 293 291 283 276 277 258 219 184 178 226 225 188 186 217 216 76 83 154 191 283 288 294 274 230 248 224 192 188 176 175 187 191 199 189 173 183 195 185 189 192 209 226 223 225 211 187 196 198 188 181 190 195 173 168 186 176 182 196 178 183 228 231 190 142 178 209 247 252 246 240 247 245 232 233 239 234 222 217 214 213 214 218
327 328 323 319 311 297 287 284 273 268 263 222 188 164 197 227 224 173 200 218 248 341 69 149 313 300 275 294 315 293 254 224 162 190 180 173 189 196 207 202 185 185 144 167 197 198 205 221 203 204 198 175 197 213 199 163 177 199 183 184 198 180 192 202 181 204 212 193 121 139 178 207 191 224 237 235 255 263 246 237 236 235 235 229 217 211 212 215
327 328 326 323 312 293 286 277 256 254 237 189 171 196 207 212 199 172 208 222 251 285 271 64 336 313 298 249 295 321 252 335 70 198 196 179 189 195 191 194 194 185 157 179 196 185 212 231 189 196 201 175 195 210 173 156 183 198 174 199 208 177 178 197 189 205 184 158 170 169 209 224 214 308 287 248 265 271 252 238 227 223 224 218 207 206 209 211
325 327 332 330 315 302 289 266 249 244 207 176 178 220 214 212 180 180 199 202 209 244 286 301 272 267 273 242 190 193 269 292 55 220 208 194 208 195 186 187 187 186 184 188 183 158 210 225 166 183 215 198 195 180 172 191 192 157 181 205 201 153 176 187 181 77 132 232 205 172 231 241 241 284 272 247 252 253 246 234 224 216 206 204 204 205 208 211
329 332 336 334 327 331 306 263 252 229 192 180 205 220 210 228 209 205 218 173 185 134 183 236 223 215 237 222 174 165 320 316 66 318 214 199 231 195 189 191 181 189 194 194 205 195 206 214 174 187 210 213 205 192 198 207 180 153 199 181 107 59 210 193 211 170 188 232 216 168 225 229 210 249 261 249 249 249 244 226 216 206 194 204 210 209 212 215
332 332 333 324 327 350 351 307 241 201 183 189 230 229 212 216 207 210 217 160 153 134 176 214 218 210 230 217 174 178 326 326 323 331 243 207 237 185 185 189 180 192 197 198 213 201 198 225 195 196 209 198 182 198 215 208 189 248 198 160 140 202 192 162 216 197 197 230 219 183 219 229 219 219 239 254 254 258 256 224 192 197 201 209 212 212 215 216
332 332 330 303 304 334 355 350 202 183 181 199 221 225 214 215 223 231 230 222 189 194 215 224 220 231 217 207 214 211 313 308 280 312 251 211 229 181 187 196 193 197 194 193 199 162 179 224 214 192 206 174 158 195 216 207 191 31 164 168 187 226 186 178 198 186 205 227 222 204 210 210 216 212 220 238 244 254 258 239 200 207 210 213 214 211 213 214
336 333 309 308 313 320 344 357 169 180 202 216 212 219 203 218 238 238 235 234 217 209 229 220 212 228 223 227 267 257 262 269 253 259 230 204 233 209 201 202 194 198 192 190 193 171 169 218 221 167 136 179 188 197 213 210 194 188 195 188 192 197 165 200 195 168 211 218 210 222 226 197 191 208 215 227 235 238 244 244 232 221 214 218 221 218 215 215
343 336 278 313 314 310 324 339 179 194 245 238 226 233 230 242 251 250 247 238 228 230 236 220 207 216 224 233 244 229 234 251 237 237 233 218 235 229 210 208 183 152 164 184 201 199 176 195 214 192 169 203 207 194 209 218 205 197 203 196 192 186 167 202 211 184 203 219 199 221 241 217 176 199 214 221 232 235 235 240 247 245 232 225 225 223 221 218
343 309 297 310 303 299 304 275 208 209 234 247 267 259 256 262 254 257 254 231 223 228 227 227 217 212 223 234 236 226 236 254 241 236 243 231 231 238 225 200 168 146 155 186 202 198 173 168 211 216 214 216 210 184 203 225 215 205 207 203 201 199 193 209 216 178 172 216 134 206 249 229 169 191 215 221 233 243 245 247 256 260 254 245 233 225 223 222
322 300 311 315 305 298 256 246 234 205 226 252 275 275 269 264 250 248 242 215 212 213 207 215 215 220 226 225 230 229 223 242 243 232 238 239 233 239 238 213 163 148 182 202 193 182 158 152 207 222 237 237 229 185 151 230 216 212 213 204 201 208 211 218 215 169 188 196 163 196 238 209 161 176 223 241 258 265 259 247 244 257 260 258 248 232 225 223
306 302 309 318 334 346 191 254 267 233 258 274 277 274 263 258 257 251 244 227 213 198 199 212 208 219 226 214 223 224 206 220 236 227 230 235 228 237 241 239 234 205 203 207 179 170 174 186 197 211 230 233 225 214 204 203 207 215 217 206 208 211 211 214 116 147 216 198 185 212 229 192 170 147 202 251 258 260 258 247 241 253 259 256 249 238 228 222
311 304 301 311 327 264 221 294 347 303 317 317 293 276 261 254 247 242 244 247 241 229 224 230 218 222 227 216 224 226 211 219 238 230 223 223 229 247 242 238 233 217 224 221 187 170 185 192 186 200 218 220 217 217 213 199 193 215 213 201 210 211 205 192 148 210 222 188 188 220 226 180 180 220 220 240 243 248 254 249 244 251 255 253 247 238 226 220
314 303 295 315 322 258 234 274 19 2 347 336 306 280 256 253 252 246 241 237 236 234 236 242 233 232 237 230 237 238 226 228 234 236 236 231 230 233 230 239 230 225 246 242 204 182 186 186 190 202 215 219 219 217 198 180 189 208 209 202 202 206 203 195 200 217 204 154 199 222 217 207 207 203 215 228 225 234 245 243 239 245 249 250 246 238 226 220
281 292 319 334 323 288 237 116 35 358 334 322 306 303 286 277 281 255 232 225 228 225 226 231 227 229 230 224 232 240 233 231 231 236 248 252 256 268 284 294 271 243 272 268 205 183 183 209 200 205 213 219 222 216 195 191 205 209 210 209 199 194 197 201 213 209 152 166 219 208 192 215 210 195 209 220 221 230 241 239 237 240 243 245 243 234 224 219
256 292 333 345 311 282 293 324 339 330 310 295 279 285 289 283 288 279 241 252 257 216 208 216 219 223 230 226 231 237 229 229 233 237 243 245 255 270 278 283 257 233 328 317 192 174 213 224 203 206 217 221 225 222 200 196 214 214 211 211 201 194 195 202 215 206 161 199 230 199 181 208 207 201 212 217 217 220 227 233 236 238 239 240 236 226 218 215
282 293 311 332 306 286 297 302 311 309 293 289 271 258 274 278 286 306 297 302 295 219 209 219 211 213 240 246 247 241 227 228 234 232 227 231 237 244 254 257 225 199 9 357 187 173 242 233 200 208 223 226 229 227 204 198 218 222 215 212 202 199 199 201 210 204 190 213 228 199 192 206 206 207 212 218 224 226 233 239 239 235 233 230 224 217 214 212
292 296 306 326 312 289 289 291 298 302 293 290 268 254 274 281 300 341 324 278 275 236 199 215 236 346 315 268 244 233 233 254 269 263 246 239 232 216 226 247 225 184 45 38 28 269 252 249 176 193 225 236 234 229 212 206 218 225 223 218 207 203 203 206 212 204 195 211 222 201 203 216 219 219 222 234 241 240 241 240 232 228 227 221 216 214 212 212
299 294 283 297 299 284 284 290 297 301 293 277 261 283 309 305 335 340 312 252 246 257 253 353 355 346 320 274 252 239 246 315 297 281 278 269 265 254 229 259 343 318 62 64 360 296 262 251 123 168 225 240 227 226 224 214 215 227 229 222 210 202 202 208 210 197 190 201 211 209 213 228 233 224 226 246 248 236 237 235 230 229 224 216 214 215 214 213
317 309 266 265 279 280 286 297 291 279 276 277 325 335 314 306 331 333 309 263 250 255 289 3 358 337 308 285 274 277 316 313 291 279 274 265 263 267 257 250 271 283 269 92 25 299 296 328 11 224 243 252 239 229 226 211 213 230 231 222 214 205 203 209 208 201 200 200 202 207 215 227 226 194 194 223 226 225 236 238 234 230 223 219 220 220 218 216